GREENCUBE (IO-117)

Last updated on Sat Aug 15 2026 00:03:14 GMT+0000 (Coordinated Universal Time)

1 53109U 22080E 26226.54794367 -.00000003 00000+0 00000+0 0 9995 2 53109 70.1309 277.9512 0009143 276.7065 83.2554 6.42583556 95817
UTC large
Height (km)
Speed (km/s)
/
Latitude / Longitude
Inclination (degrees)
Orbital Period (minutes)
Azimuth
Elevation
Range (km)
Doppler Factor

Next 0 passes for location: London (51.5072 / 0.1276)

No passes found over London.
GREENCUBE (IO-117)